DateTimeUTC,F1_A11,F1_S11,BsB_S11,BsG_S11,BsR_S11,BbsB_S11,BbsG_S11,BbsR_S11,BaB_A11,BaG_A11,BaR_A11,Tu_S11,T_S11,Uu_S11,U_S11,P_S11,T1_A11
2021-07-10T19:00:00Z,00000200,20000000,,,,,,,-000.05,0000.15,0000.00,19.2,25.8,09.1,06.1,0676.3,31.1
2021-07-10T19:01:00Z,00000200,20000000,,,,,,,-000.24,-000.21,-000.03,19.2,25.8,09.1,06.1,0676.3,31.1
2021-07-10T19:02:00Z,00000200,20000000,,,,,,,0000.07,0000.22,-000.04,19.2,25.8,09.1,06.1,0676.3,31.1
2021-07-10T19:03:00Z,00000200,60000000,,,,,,,0000.09,-000.08,0000.29,19.2,25.8,09.1,06.1,0676.3,31.1
2021-07-10T19:04:00Z,00000200,40000000,-000.19,0000.36,0000.57,-000.46,0000.26,0000.12,0000.20,0000.16,0000.07,19.3,25.6,09.3,06.3,0677.3,31.1
2021-07-10T19:05:00Z,00000200,00000000,0000.44,0000.51,0000.55,0000.52,0000.19,0000.23,0000.05,0000.06,0000.07,19.4,25.6,09.2,06.3,0677.4,31.1
2021-07-10T19:06:00Z,00000200,00000000,0001.19,0000.77,0000.46,0000.39,0000.15,0000.28,-000.07,0000.12,-000.29,19.4,25.5,09.3,06.4,0677.4,31.1
2021-07-10T19:07:00Z,00000200,00000000,0000.04,0000.38,0000.34,0000.22,0000.25,0000.19,0000.27,-000.13,0000.23,19.4,25.5,09.3,06.4,0677.4,31.1
2021-07-10T19:08:00Z,00000200,00000000,0000.57,0000.20,0000.42,-000.01,-000.11,0000.39,0000.13,0000.34,0000.21,19.4,25.5,09.4,06.4,0677.3,31.1
2021-07-10T19:09:00Z,00000200,00000000,0000.65,0000.32,0000.52,0000.13,0000.07,-000.04,0000.06,-000.14,-000.18,19.4,25.5,09.4,06.4,0677.3,31.1
2021-07-10T19:10:00Z,00000200,00000000,0000.73,0000.52,0000.55,0000.23,0000.02,0000.17,-000.26,0000.27,0000.11,19.4,25.5,09.5,06.5,0677.3,31.1
2021-07-10T19:11:00Z,00000200,00000000,0000.12,0000.60,0000.03,0000.32,-000.02,-000.02,0000.43,0000.08,-000.01,19.4,25.5,09.5,06.5,0677.3,31.1
2021-07-10T19:12:00Z,00000200,00000000,0000.31,0000.31,0000.61,0000.26,-000.14,0000.35,-000.05,-000.22,0000.07,19.4,25.5,09.4,06.5,0677.3,31.1
2021-07-10T19:13:00Z,00000200,00000000,0001.00,0000.60,0000.16,-000.22,-000.04,0000.29,0000.03,0000.23,-000.30,19.4,25.5,09.4,06.5,0677.3,31.1
2021-07-10T19:14:00Z,00000200,00000000,0000.80,0000.16,0000.41,0000.61,-000.10,0000.30,-000.11,-000.06,0000.54,19.4,25.5,09.5,06.6,0677.3,31.1
2021-07-10T19:15:00Z,00000200,00000000,0000.96,0000.35,0000.13,0000.45,0000.05,0000.01,0000.24,0000.21,0000.03,19.4,25.5,09.5,06.5,0677.3,31.1
2021-07-10T19:16:00Z,00000200,00000000,0000.73,0000.26,0000.03,0000.44,-000.01,0000.13,0000.12,0000.09,0000.11,19.4,25.5,09.6,06.6,0677.3,31.1
2021-07-10T19:17:00Z,00000200,00000000,0000.54,0000.34,0000.25,0000.22,-000.12,0000.32,0000.15,0000.14,0000.24,19.4,25.5,09.6,06.6,0677.3,31.1
2021-07-10T19:18:00Z,00000200,00000000,0000.37,0000.63,0000.32,-000.35,-000.28,0000.47,0000.06,0000.17,0000.19,19.4,25.5,09.7,06.7,0677.4,31.1
2021-07-10T19:19:00Z,00000200,00000000,0000.07,0000.48,0000.36,0000.46,0000.03,0000.14,0000.22,-000.15,-000.18,19.4,25.5,09.6,06.7,0677.3,31.1
2021-07-10T19:20:00Z,00000200,00000000,0000.29,0000.21,0000.23,0000.27,0000.00,-000.03,-000.20,0000.14,-000.11,19.4,25.5,09.6,06.6,0677.4,31.1
2021-07-10T19:21:00Z,00000200,00000000,0000.72,0000.53,0000.23,-000.19,0000.11,0000.05,0000.19,-000.03,-000.04,19.4,25.5,09.7,06.7,0677.3,31.1
2021-07-10T19:22:00Z,00000200,00000000,0000.61,0000.16,0000.64,-000.12,0000.11,0000.38,0000.16,0000.15,0000.11,19.4,25.5,09.7,06.7,0677.3,31.1
2021-07-10T19:23:00Z,00000200,00000000,0000.26,0000.42,0000.53,-000.42,0000.26,0000.18,-000.04,0000.16,0000.33,19.5,25.5,09.7,06.7,0677.3,31.1
2021-07-10T19:24:00Z,00000200,00000000,-000.41,0000.59,0000.32,0000.16,-000.02,0000.42,-000.05,0000.13,0000.14,19.5,25.5,09.7,06.7,0677.3,31.1
2021-07-10T19:25:00Z,00000200,00000000,0000.70,0000.63,0000.22,-000.32,-000.07,0000.16,0000.10,-000.14,-000.03,19.5,25.5,09.8,06.8,0677.4,31.1
2021-07-10T19:26:00Z,00000200,00000000,0000.54,0000.42,0000.06,0000.55,-000.08,0000.14,0000.31,0000.03,-000.22,19.5,25.5,09.8,06.8,0677.4,31.1
2021-07-10T19:27:00Z,00000200,00000000,0000.47,0000.81,0000.49,0000.31,-000.16,0000.09,0000.07,0000.00,0000.05,19.5,25.5,09.9,06.8,0677.4,31.1
2021-07-10T19:28:00Z,00000200,00000000,0000.74,0000.28,0000.29,0000.04,-000.10,0000.25,0000.27,0000.33,0000.23,19.5,25.5,09.9,06.9,0677.4,31.1
2021-07-10T19:29:00Z,00000200,00000000,-000.04,0000.49,0000.52,-000.16,0000.08,0000.43,-000.28,-000.06,-000.12,19.5,25.5,09.9,06.8,0677.4,31.1
2021-07-10T19:30:00Z,00000200,00000000,-000.06,0000.47,0000.44,-000.05,0000.17,0000.18,0000.12,0000.15,0000.09,19.5,25.5,10.0,06.9,0677.4,31.1
2021-07-10T19:31:00Z,00000200,00000000,0001.19,0000.22,0000.13,-000.18,-000.17,0000.22,-000.10,0000.10,0000.36,19.5,25.5,10.0,06.9,0677.4,31.1
2021-07-10T19:32:00Z,00000200,00000000,0000.59,0000.40,0000.49,-000.08,-000.09,0000.63,0000.35,0000.14,0000.01,19.5,25.5,10.0,06.9,0677.4,31.1
2021-07-10T19:33:00Z,00000200,00000000,0000.44,0000.47,0000.36,0000.13,-000.04,0000.37,0000.17,0000.22,0000.08,19.5,25.5,10.0,06.9,0677.4,31.1
2021-07-10T19:34:00Z,00000200,00000000,0000.63,0000.39,0000.20,0000.65,-000.13,0000.05,0000.11,0000.12,-000.09,19.5,25.5,10.0,06.9,0677.3,31.1
2021-07-10T19:35:00Z,00000200,00000000,0000.32,0000.50,0000.52,0000.45,0000.06,0000.62,-000.10,-000.14,0000.01,19.5,25.5,10.1,07.0,0677.4,31.1
2021-07-10T19:36:00Z,00000200,00000000,0000.30,0000.62,0000.22,0000.54,0000.25,0000.18,0000.04,-000.19,0000.04,19.5,25.5,10.2,07.1,0677.4,31.1
2021-07-10T19:37:00Z,00000200,00000000,0001.06,0000.26,0000.11,0000.15,0000.19,0000.29,0000.12,0000.18,0000.17,19.5,25.5,10.1,06.9,0677.4,31.1
2021-07-10T19:38:00Z,00000200,00000000,0000.11,0000.43,0000.19,-000.12,0000.14,0000.35,-000.03,0000.07,-000.00,19.5,25.5,10.1,07.0,0677.4,31.1
2021-07-10T19:39:00Z,00000200,00000000,0000.10,0000.46,0000.37,-000.25,0000.13,0000.23,0000.14,0000.01,0000.14,19.5,25.6,10.2,07.1,0677.3,31.1
2021-07-10T19:40:00Z,00000200,00000000,0000.79,0000.76,0000.32,-000.10,-000.05,0000.19,-000.09,-000.26,0000.04,19.5,25.5,10.2,07.1,0677.4,31.1
2021-07-10T19:41:00Z,00000200,00000000,0000.88,0000.54,0000.41,0000.29,-000.03,0000.28,0000.25,0000.40,-000.18,19.5,25.6,10.3,07.1,0677.4,31.1
2021-07-10T19:42:00Z,00000200,00000000,0000.72,0000.39,0000.34,-000.29,-000.10,0000.10,0000.03,0000.19,0000.46,19.5,25.5,10.3,07.1,0677.4,31.1
2021-07-10T19:43:00Z,00000200,00000000,0000.84,0000.20,0000.23,0000.20,0000.05,0000.34,-000.11,-000.10,-000.41,19.5,25.5,10.3,07.1,0677.4,31.1
2021-07-10T19:44:00Z,00000200,00000000,0000.63,0000.23,0000.50,-000.40,0000.06,0000.16,0000.24,0000.24,0000.17,19.5,25.5,10.3,07.1,0677.4,31.1
2021-07-10T19:45:00Z,00000200,00000000,0000.75,0000.20,0000.31,0000.19,0000.18,0000.29,0000.29,0000.03,0000.11,19.5,25.5,10.4,07.2,0677.4,31.1
2021-07-10T19:46:00Z,00000200,00000000,0000.10,0000.43,0000.26,-000.26,-000.00,0000.05,-000.22,-000.18,0000.02,19.5,25.5,10.4,07.2,0677.4,31.1
2021-07-10T19:47:00Z,00000200,00000000,0000.39,0000.75,0000.44,0000.62,0000.23,0000.51,0000.09,0000.32,0000.36,19.5,25.5,10.5,07.3,0677.4,31.1
2021-07-10T19:48:00Z,00000200,00000000,0000.09,0000.23,0000.27,-000.01,-000.28,0000.28,0000.19,0000.10,-000.04,19.5,25.6,10.5,07.3,0677.4,31.1
2021-07-10T19:49:00Z,00000200,00000000,0000.62,0000.49,0000.33,0000.29,-000.24,0000.28,-000.30,-000.19,-000.18,19.5,25.6,10.5,07.3,0677.4,31.1
2021-07-10T19:50:00Z,00000200,00000000,0000.27,0000.16,0000.22,0000.28,-000.11,0000.13,0000.23,0000.36,0000.27,19.5,25.6,10.6,07.3,0677.4,31.1
2021-07-10T19:51:00Z,00000200,00000000,0000.37,0000.35,0000.31,0000.37,-000.14,0000.15,0000.26,-000.16,-000.28,19.5,25.6,10.5,07.3,0677.4,31.1
2021-07-10T19:52:00Z,00000200,00000000,0000.46,0000.35,0000.51,-000.31,-000.07,0000.29,0000.01,-000.03,0000.35,19.5,25.6,10.5,07.3,0677.4,31.1
2021-07-10T19:53:00Z,00000200,00000000,0000.75,0000.37,0000.41,0000.34,0000.09,-000.04,0000.10,0000.48,-000.03,19.6,25.6,10.5,07.3,0677.5,31.1
2021-07-10T19:54:00Z,00000200,00000000,0000.34,0000.59,0000.53,-000.32,-000.04,0000.35,-000.38,-000.30,0000.01,19.5,25.6,10.6,07.4,0677.5,31.1
2021-07-10T19:55:00Z,00000200,00000000,0000.17,0000.52,0000.41,0000.39,0000.23,0000.22,0000.27,-000.07,0000.01,19.5,25.6,10.6,07.4,0677.4,31.1
2021-07-10T19:56:00Z,00000200,00000000,0000.81,0000.45,0000.69,0000.28,0000.01,0000.34,0000.07,0000.24,-000.05,19.5,25.6,10.7,07.4,0677.5,31.1
2021-07-10T19:57:00Z,00000200,40000000,,,,,,,-000.14,-000.07,0000.00,19.6,25.6,10.7,07.4,0677.5,31.1
2021-07-10T19:58:00Z,00000200,60000000,,,,,,,0000.22,0000.03,0000.33,19.4,25.7,10.6,07.2,0676.5,31.1
2021-07-10T19:59:00Z,00000200,20000000,,,,,,,-000.21,0000.06,-000.22,19.4,25.8,10.6,07.2,0676.5,31.1
